{"data":{"norad_id":47568,"epoch":"2026-05-25T00:15:32.095296Z","epoch_age_seconds":80952,"freshness":"FRESH","line1":"1 47568U 21009W   26145.01078814  .00000287  00000+0  56684-5 0  9999","line2":"2 47568  53.0422 347.4534 0001950 166.5819 193.5252 15.77217754293028","mean_motion":15.77217754,"eccentricity":0.000195,"inclination_deg":53.0422,"raan_deg":347.4534,"arg_perigee_deg":166.5819,"mean_anomaly_deg":193.5252,"bstar":5.6684e-6,"rev_number":29302,"period_min":91.300012084444,"perigee_km":337.01799018756,"apogee_km":339.63741142088,"semimajor_km":6716.4647008042,"source":"CELESTRAK","updated_at":"2026-05-25T13:38:16.557086Z"}}